Regional Weather Roundup
Issued by NWS Glasgow, MT

Home | Current Version | Previous Version | Text Only | Print | Product List | Glossary On
Versions: 1 2 3 4 5 6 7 8 9 10 11 12 13 14 15 16 17 18 19 20 21 22 23 24 25 26 27 28 29 30 31 32 33 34 35 36 37 38 39 40 41 42 43 44 45 46 47 48 49 50
000
ASUS45 KGGW 221515
RWRGGW
HOURLY WEATHER ROUNDUP FOR NORTHEAST MONTANA
NATIONAL WEATHER SERVICE GLASGOW MONTANA
900 AM MDT MON SEP 22 2014

NOTE: "FAIR" INDICATES FEW OR NO CLOUDS BELOW 12,000 FEET WITH NO
SIGNIFICANT WEATHER AND/OR OBSTRUCTIONS TO VISISBILITY.

NORTHEAST MONTANA


CITY           SKY/WX    TMP DP  RH WIND       PRES   REMARKS
GLASGOW        SUNNY     58  37  45 E18       29.94F
PLENTYWOOD       N/A     57  35  43 SE10        N/A
WOLF POINT     SUNNY     54  40  59 E10       29.98F
JORDAN           N/A     59  43  55 SE3       29.94F
WINNETT          N/A     57  46  66 E2          N/A
SIDNEY         SUNNY     55  41  58 CALM      30.03S
GLENDIVE       SUNNY     54  39  58 CALM      30.01
MALTA            N/A     51  43  74 NE5         N/A
SCOBEY           N/A     53  36  52 CALM      29.97F
OPHEIM           N/A     57  37  47 SE5       29.80F

FORT PECK REPORTS


CITY           SKY/WX    TMP DP  RH WIND       PRES   REMARKS
FORT PECK        N/A     61  43  51 E7          N/A
THE PINES        N/A     60  39  45 S10         N/A

SOUTHEAST MONTANA


CITY           SKY/WX    TMP DP  RH WIND       PRES   REMARKS
BILLINGS       CLOUDY    59  45  59 SW15      29.98S
MILES CITY     MOSUNNY   61  41  47 SE7       29.96F
BAKER          SUNNY     57  39  51 SE14      30.02F
LIVINGSTON     CLOUDY    64  47  53 SW14G21   30.04S

CENTRAL MONTANA


CITY           SKY/WX    TMP DP  RH WIND       PRES   REMARKS
HAVRE          SUNNY     50  45  83 CALM      29.91S
LEWISTOWN      PTSUNNY   55  45  68 SE6       29.97S
GREAT FALLS    SUNNY     65  46  50 S12       29.93S
CUT BANK       SUNNY     51  43  74 CALM      29.94R
HELENA         PTSUNNY   58  45  62 CALM      30.03F
BUTTE          PTSUNNY   54  44  69 CALM      30.12S
BOZEMAN        CLOUDY    55  50  83 CALM      30.07F

WESTERN MONTANA


CITY           SKY/WX    TMP DP  RH WIND       PRES   REMARKS
MISSOULA       SUNNY     54  42  64 CALM      30.02R
KALISPELL      NOT AVBL

NORTH DAKOTA


CITY           SKY/WX    TMP DP  RH WIND       PRES   REMARKS
WILLISTON      SUNNY     58  40  51 CALM      30.03F
DICKINSON      SUNNY     57  43  59 S15       30.04S
MINOT          SUNNY     62  44  51 S6        30.07F
BISMARCK       SUNNY     59  48  67 SE10      30.12F

SOUTHERN SASKATCHEWAN


CITY           SKY/WX    TMP DP  RH WIND       PRES   REMARKS
REGINA         SUNNY     54  41  62 SE10      29.98F
MOOSE JAW      SUNNY     55  46  71 E5        29.95F
ESTEVAN        SUNNY     59  46  63 SE6       30.03F
SWIFT CURRENT  SUNNY     61  41  48 S12       29.90F



USA.gov is the U.S. government's official web portal to all federal, state and local government web resources and services.